Wind_Speed
43 35 29 23 24 26 29 30 32 30 29 24 22 22 22 22 20 20 22 24 25 25 24 26 28 32 35 37 37 39 40 41 48 51 54 54 55 59 62 68 77 82 88 88 88 88 86
43 28 25 22 25 27 28 31 31 25 22 20 18 21 21 20 19 21 22 24 24 22 23 23 26 28 31 33 33 35 37 39 42 46 47 48 49 53 57 62 67 71 77 82 82 81 81
37 25 21 24 24 25 29 31 26 20 17 17 21 22 21 20 21 21 21 22 21 19 19 20 20 22 25 27 29 31 32 34 37 40 42 43 44 46 50 55 60 65 70 71 74 77 71
34 26 22 22 22 28 29 28 18 14 14 17 22 21 21 20 21 21 20 20 19 18 18 19 19 19 22 23 25 26 28 30 32 35 37 39 41 42 44 48 52 54 57 58 59 61 68
31 24 25 19 23 29 27 20 13 11 13 15 19 22 23 22 21 21 20 20 20 20 21 21 20 19 19 21 22 24 25 28 29 31 34 34 33 34 36 38 40 44 46 50 52 55 55
26 26 21 20 26 28 22 15 10 12 14 18 21 24 26 26 25 24 25 26 24 22 21 22 21 19 21 20 21 21 22 24 25 26 27 28 29 31 33 36 34 36 41 44 47 44 43
32 27 20 24 27 23 18 12 13 19 23 26 29 30 31 29 28 29 27 28 28 28 28 20 21 24 19 18 18 18 19 19 20 21 23 24 25 27 27 28 31 35 38 37 36 35 32
31 26 23 24 25 19 18 18 22 28 33 33 33 32 31 31 30 30 30 27 26 25 24 23 19 20 18 19 17 16 15 14 16 18 19 20 23 24 24 25 26 25 23 23 23 24 23
31 26 24 24 19 21 24 28 31 34 35 34 35 34 32 31 31 31 29 29 24 23 22 21 20 16 15 12 10 11 10 10 8 8 10 12 14 16 17 18 19 20 21 21 22 24 23
31 25 25 22 20 27 33 33 35 35 37 36 34 34 33 32 31 29 27 26 21 18 18 17 17 15 14 12 11 8 7 5 6 7 8 10 12 14 17 19 19 20 20 21 23 23 21
29 27 25 20 27 35 36 36 37 36 34 34 34 34 33 31 27 27 21 19 18 18 19 18 18 17 16 12 9 8 8 8 7 6 8 11 14 16 18 19 18 21 20 22 22 24 25
29 27 26 24 35 39 39 41 36 35 35 35 34 34 31 30 30 23 22 20 21 21 22 20 17 14 12 9 7 4 2 1 1 3 5 8 11 14 16 20 22 22 23 23 24 26 30
30 29 27 34 41 41 40 43 34 37 35 35 34 32 30 29 23 25 25 24 23 21 20 17 15 12 9 8 5 3 2 2 2 3 4 4 6 7 9 13 17 21 23 24 28 30 33
32 31 31 43 44 46 42 40 34 38 35 34 33 33 28 25 27 26 26 24 21 18 15 13 11 9 7 5 3 3 4 2 1 0 1 2 4 5 7 7 8 10 13 17 20 25 27
36 33 36 48 49 47 44 43 35 38 37 35 34 32 27 27 25 27 25 22 18 16 15 14 12 10 8 6 5 7 4 3 3 5 7 7 8 8 10 9 9 8 9 11 15 18 22
40 36 41 48 53 51 44 41 39 40 37 37 37 31 29 28 26 27 24 22 19 17 15 14 10 8 6 6 8 6 6 4 4 3 2 3 5 7 8 10 13 15 17 19 21 23 25
42 39 46 50 57 51 44 43 43 41 38 38 35 30 29 28 26 26 24 22 17 18 16 14 10 9 8 7 7 6 5 3 1 1 2 4 7 9 12 13 15 17 20 23 24 27 29
43 43 46 51 59 50 44 45 44 42 40 35 33 32 29 29 28 28 23 19 16 19 18 14 11 9 9 9 7 7 5 4 3 4 5 7 9 10 13 15 16 17 18 23 26 29 32
44 45 47 51 59 53 48 46 45 43 42 38 34 32 30 30 31 29 23 21 18 19 18 14 11 10 10 9 9 7 7 7 8 9 11 13 16 17 18 21 25 26 29 30 35 36 37
46 47 48 51 60 57 50 49 45 44 40 38 37 33 30 31 31 31 27 24 23 20 16 14 13 13 14 13 11 11 11 11 12 14 16 19 21 22 23 24 25 28 31 33 34 40 44
50 52 51 55 59 56 51 51 47 44 39 37 36 34 33 34 33 33 30 26 24 23 20 16 15 16 18 17 16 16 16 15 15 18 20 22 25 26 27 29 32 34 35 36 40 42 42
54 54 54 59 59 57 52 49 49 44 39 36 37 37 38 38 34 33 32 30 28 25 23 20 19 20 22 22 22 21 21 19 19 20 23 26 28 32 33 34 36 38 40 42 45 47 45
55 55 58 60 61 58 56 52 51 46 41 37 38 40 39 38 37 33 33 32 31 29 26 24 23 23 26 26 25 25 24 24 25 26 28 31 34 37 40 42 42 43 44 47 50 50 49
54 55 57 60 62 62 60 57 53 50 45 42 37 36 38 40 40 37 32 31 30 28 27 26 25 27 27 28 29 30 29 30 30 32 34 36 40 41 43 46 50 49 50 50 49 51 53
54 55 53 59 60 63 64 61 58 56 50 46 40 35 39 41 39 39 38 35 36 36 32 33 31 30 31 32 33 33 33 34 36 39 42 44 46 47 48 49 53 53 50 55 51 54 54
55 53 55 55 58 63 65 65 62 58 54 52 47 41 38 36 39 39 34 35 34 33 35 34 34 34 34 36 38 38 39 41 44 46 47 47 49 52 53 53 54 55 54 56 54 57 55
58 55 55 55 57 59 63 65 64 61 58 53 53 48 45 42 38 35 32 34 34 34 30 32 33 36 40 42 41 39 39 41 43 47 51 52 54 55 54 55 56 57 58 62 60 61 61
61 60 58 59 56 57 61 62 68 64 60 58 54 52 51 49 48 40 37 34 35 33 36 36 38 37 38 39 41 44 46 49 52 54 58 60 64 62 61 62 60 59 60 63 65 63 62
64 63 60 61 60 59 60 61 62 67 67 62 60 58 56 55 54 53 49 44 44 42 41 44 41 46 47 49 52 53 55 58 60 62 65 69 70 64 63 64 66 63 62 64 65 64 64
Wind_Direction
265 260 264 243 253 260 266 278 280 279 277 268 257 236 222 215 214 214 215 214 215 219 221 222 223 225 227 227 228 227 224 224 226 228 227 227 228 233 238 237 239 242 246 250 252 252 254
262 259 244 243 255 264 273 282 280 278 269 257 231 213 209 208 205 202 202 207 211 211 213 216 218 217 219 223 224 225 225 226 229 232 232 231 233 235 235 236 238 241 243 247 250 253 254
261 230 238 247 253 271 279 284 279 264 255 229 202 198 198 196 195 194 193 197 200 202 205 209 208 211 212 214 218 219 221 221 224 227 230 234 238 241 241 241 240 242 246 251 254 254 257
240 226 235 236 262 273 280 283 269 251 236 213 200 197 189 180 179 180 186 188 192 194 196 199 201 204 201 209 212 214 220 226 228 230 234 237 241 245 246 249 249 252 255 257 259 258 258
215 222 225 239 261 272 283 271 254 232 211 196 190 184 173 171 170 175 177 177 174 176 178 174 177 181 187 198 204 210 218 225 227 232 239 242 244 244 245 247 247 248 248 247 247 251 252
215 218 227 247 262 272 271 246 226 205 189 178 167 155 156 160 163 164 161 159 162 164 165 171 162 170 182 192 196 200 208 215 220 223 225 228 233 238 239 240 242 245 247 247 248 249 247
209 215 228 251 260 267 238 209 201 179 174 158 149 148 149 152 157 155 155 161 157 156 155 155 171 166 184 190 194 198 203 211 218 221 226 228 233 236 234 240 241 245 248 248 248 246 244
203 214 232 250 258 239 206 180 172 164 155 150 148 149 150 148 147 147 149 147 159 156 159 162 179 175 183 193 191 195 193 202 209 212 220 222 231 230 231 231 232 233 233 234 234 234 236
199 217 235 245 243 216 177 168 156 154 153 151 149 152 152 152 150 150 150 149 156 162 163 165 166 156 153 161 166 170 182 182 189 203 217 219 213 216 220 225 227 230 230 231 236 244 249
199 218 235 239 215 190 167 163 159 158 157 153 153 151 149 149 149 150 152 151 152 154 147 141 145 148 145 144 145 148 150 169 194 217 230 230 230 230 228 231 240 244 242 242 248 255 260
198 216 231 223 197 177 169 169 167 164 163 156 154 153 150 151 149 150 150 147 148 148 144 146 145 144 148 143 138 137 148 157 172 202 234 244 244 248 248 255 257 249 255 257 256 262 264
199 216 225 200 190 175 173 176 172 169 165 163 160 156 155 157 156 156 150 151 153 156 153 150 152 152 154 153 149 152 160 213 259 275 268 260 256 256 255 256 260 259 260 262 262 266 269
199 215 212 187 186 178 174 180 177 172 172 168 164 163 162 158 158 156 157 157 157 163 162 165 166 164 166 168 173 205 227 266 271 281 267 232 242 259 273 275 272 266 262 264 267 268 270
201 213 191 185 184 178 183 182 179 174 178 171 167 168 168 162 163 164 162 162 165 160 164 162 162 170 179 188 222 237 211 224 335 275 186 26 11 352 337 326 309 291 283 285 291 287 286
201 206 187 185 184 181 183 186 183 179 180 174 175 177 169 167 170 168 168 167 166 169 172 171 180 185 195 219 198 176 184 151 129 114 103 87 71 51 38 28 12 354 329 311 299 292 289
200 199 188 188 185 183 186 195 187 178 176 180 183 186 177 174 174 176 174 171 173 176 177 181 188 191 197 181 170 177 163 145 121 109 84 35 14 4 358 347 332 321 317 315 312 310 307
198 194 188 189 183 183 188 193 185 178 183 190 193 190 187 185 183 184 182 178 181 186 190 191 186 186 185 168 153 149 151 149 138 288 308 325 337 336 332 325 319 315 312 309 305 303 300
197 188 189 191 187 183 190 187 186 184 188 196 191 197 193 193 190 189 187 183 189 196 200 190 191 192 191 183 184 192 202 220 260 291 307 311 309 311 317 315 312 305 306 310 308 302 297
194 189 192 191 188 186 189 186 187 190 195 198 200 202 200 196 193 194 191 196 198 199 197 196 203 213 216 208 207 210 222 246 272 289 298 305 311 318 321 321 322 318 317 317 315 310 305
195 190 192 192 189 189 191 190 193 195 197 201 202 206 208 199 199 198 201 207 211 209 209 211 216 225 234 238 240 246 251 261 276 288 297 302 306 309 309 305 303 305 309 310 311 312 310
195 190 192 191 190 191 193 191 195 198 203 208 206 208 209 204 206 203 206 212 217 219 220 224 229 232 239 248 255 257 261 267 277 286 293 301 305 304 305 304 305 305 309 309 311 310 311
195 192 194 193 195 197 196 196 200 200 206 214 210 212 213 213 210 209 214 221 225 229 228 232 236 236 241 248 252 262 269 272 279 287 293 298 301 304 304 302 304 305 306 307 310 310 307
194 195 197 199 200 202 198 201 204 204 207 215 217 216 215 216 214 216 221 226 229 234 236 239 245 245 245 250 258 265 271 277 282 287 290 294 299 302 304 304 304 306 307 307 307 305 306
193 197 198 202 204 204 205 202 206 208 210 214 217 221 218 216 219 224 223 230 232 236 240 246 250 249 255 260 265 270 275 278 282 285 289 295 299 301 302 303 304 304 305 306 305 306 307
193 200 201 202 206 207 208 207 207 213 214 218 220 222 225 220 221 224 229 236 243 245 249 250 250 255 259 263 265 270 274 279 285 288 291 293 295 296 298 300 302 304 305 306 304 307 307
197 198 205 205 205 209 210 211 209 212 217 220 224 224 226 226 228 228 227 238 242 246 247 250 253 258 262 265 268 274 279 283 287 290 292 295 297 298 298 299 299 299 300 300 303 304 306
201 201 205 209 207 210 212 213 212 213 217 223 224 227 230 232 232 227 231 241 242 249 256 256 258 262 264 267 274 280 284 286 290 292 293 294 296 299 300 298 298 299 302 302 303 304 306
200 204 205 210 211 211 212 214 215 217 220 221 224 228 235 235 239 238 234 241 247 254 256 260 265 268 270 275 277 278 281 286 287 290 292 295 297 297 299 300 297 298 298 300 301 302 303
202 204 207 208 213 213 214 216 217 221 224 227 229 230 234 237 240 242 245 246 249 254 260 263 267 268 271 275 277 280 285 288 289 291 292 296 295 295 296 300 299 297 296 300 302 303 307
Height
10576 10577 10578 10579 10581 10581 10581 10581 10580 10579 10575 10575 10576 10579 10579 10581 10585 10589 10594 10599 10605 10611 10616 10620 10626 10632 10637 10643 10648 10653 10660 10666 10673 10679 10687 10694 10700 10706 10713 10719 10723 10728 10732 10735 10737 10741 10743
10570 10572 10572 10575 10576 10577 10577 10576 10574 10571 10569 10570 10572 10575 10577 10580 10584 10588 10593 10598 10603 10608 10614 10619 10624 10629 10634 10639 10645 10650 10656 10662 10668 10674 10681 10687 10692 10698 10702 10707 10713 10718 10719 10722 10728 10731 10731
10567 10566 10568 10571 10571 10573 10572 10570 10567 10566 10565 10566 10569 10572 10575 10579 10583 10588 10593 10598 10603 10608 10612 10617 10622 10627 10632 10637 10642 10647 10652 10658 10663 10668 10673 10680 10685 10690 10695 10699 10703 10708 10711 10715 10717 10720 10721
10561 10562 10564 10566 10569 10569 10568 10565 10562 10562 10562 10564 10567 10571 10575 10579 10583 10589 10594 10599 10603 10607 10612 10617 10621 10626 10631 10636 10640 10645 10650 10655 10660 10665 10670 10675 10680 10684 10687 10691 10695 10698 10701 10703 10705 10707 10708
10556 10558 10561 10562 10566 10565 10564 10561 10560 10559 10561 10563 10566 10570 10574 10580 10585 10590 10595 10599 10604 10608 10612 10616 10621 10626 10630 10634 10639 10643 10648 10653 10657 10661 10665 10669 10672 10675 10678 10680 10682 10686 10691 10693 10695 10697 10699
10551 10554 10557 10559 10562 10561 10560 10558 10558 10559 10562 10564 10567 10571 10576 10581 10586 10590 10595 10600 10606 10610 10615 10619 10623 10628 10631 10635 10638 10642 10646 10650 10654 10658 10661 10664 10666 10669 10672 10675 10679 10683 10685 10687 10689 10690 10691
10545 10551 10553 10556 10558 10558 10558 10557 10558 10560 10565 10567 10569 10573 10578 10583 10588 10593 10598 10603 10607 10611 10614 10622 10625 10627 10632 10635 10638 10642 10646 10649 10652 10655 10657 10660 10663 10665 10669 10672 10675 10677 10679 10681 10682 10682 10682
10540 10546 10550 10553 10554 10555 10555 10557 10559 10562 10566 10569 10571 10576 10582 10587 10591 10595 10600 10606 10611 10614 10617 10621 10626 10629 10633 10636 10639 10643 10646 10649 10650 10653 10656 10658 10660 10663 10666 10668 10670 10671 10672 10673 10673 10673 10673
10535 10541 10545 10549 10550 10552 10554 10558 10561 10565 10568 10571 10574 10580 10584 10589 10593 10598 10603 10607 10614 10617 10620 10622 10626 10630 10633 10637 10640 10643 10645 10648 10650 10653 10655 10657 10658 10660 10662 10663 10665 10666 10668 10668 10668 10668 10668
10530 10537 10541 10544 10547 10551 10554 10559 10563 10567 10571 10574 10578 10582 10587 10591 10596 10600 10606 10609 10614 10619 10622 10625 10628 10631 10635 10638 10641 10643 10645 10648 10650 10652 10653 10655 10657 10658 10659 10660 10662 10662 10663 10663 10662 10662 10663
10525 10532 10537 10540 10545 10549 10554 10560 10565 10569 10574 10577 10581 10586 10590 10595 10600 10603 10608 10611 10616 10620 10624 10627 10629 10633 10636 10639 10642 10644 10646 10648 10650 10651 10653 10654 10655 10656 10656 10657 10658 10657 10658 10658 10657 10657 10658
10520 10528 10532 10536 10543 10548 10554 10561 10566 10571 10575 10578 10582 10586 10591 10595 10599 10606 10610 10614 10618 10622 10625 10628 10631 10635 10638 10640 10642 10644 10646 10647 10649 10649 10650 10651 10651 10652 10652 10652 10652 10653 10654 10654 10655 10655 10654
10515 10522 10527 10532 10540 10546 10554 10562 10567 10572 10576 10580 10584 10589 10594 10598 10605 10608 10612 10616 10620 10624 10627 10630 10633 10636 10638 10640 10642 10644 10645 10646 10647 10648 10648 10648 10649 10649 10649 10649 10648 10649 10650 10651 10651 10650 10648
10510 10517 10522 10529 10538 10544 10553 10562 10566 10571 10577 10581 10586 10591 10595 10600 10604 10609 10614 10618 10622 10625 10627 10630 10633 10635 10638 10640 10641 10643 10644 10645 10646 10647 10647 10647 10647 10647 10646 10646 10646 10646 10646 10646 10646 10644 10642
10505 10512 10518 10526 10535 10543 10551 10560 10565 10571 10576 10581 10587 10592 10597 10601 10606 10610 10615 10619 10622 10624 10627 10630 10633 10636 10638 10639 10640 10642 10643 10645 10645 10645 10646 10646 10647 10647 10646 10645 10644 10643 10642 10641 10640 10638 10635
10500 10507 10514 10523 10532 10540 10549 10557 10564 10570 10576 10582 10587 10592 10597 10601 10605 10610 10614 10618 10621 10624 10627 10630 10633 10635 10637 10639 10640 10642 10643 10644 10645 10645 10646 10646 10646 10646 10646 10645 10643 10642 10640 10638 10636 10634 10631
10495 10502 10510 10520 10530 10538 10547 10555 10562 10569 10575 10582 10586 10592 10596 10601 10605 10610 10613 10617 10620 10623 10626 10629 10632 10634 10636 10638 10639 10640 10641 10642 10644 10645 10645 10644 10644 10644 10644 10643 10641 10639 10636 10634 10632 10630 10627
10490 10497 10507 10517 10528 10536 10544 10553 10560 10567 10574 10580 10586 10591 10595 10599 10604 10608 10612 10616 10619 10622 10625 10628 10630 10633 10635 10636 10638 10639 10640 10641 10642 10642 10643 10642 10642 10642 10640 10638 10637 10635 10633 10630 10628 10626 10622
10486 10494 10503 10514 10525 10534 10541 10550 10558 10565 10571 10578 10584 10588 10592 10597 10602 10607 10611 10615 10618 10621 10624 10626 10629 10631 10633 10635 10636 10637 10638 10639 10639 10639 10639 10639 10638 10638 10636 10633 10630 10628 10627 10626 10621 10618 10614
10482 10490 10500 10510 10521 10531 10538 10547 10555 10562 10569 10576 10581 10586 10591 10596 10600 10604 10608 10612 10615 10619 10621 10624 10626 10629 10631 10632 10633 10634 10635 10636 10636 10636 10635 10634 10633 10633 10632 10630 10628 10626 10623 10620 10617 10612 10605
10478 10486 10496 10506 10517 10527 10535 10543 10551 10558 10565 10572 10578 10583 10588 10592 10596 10601 10606 10609 10612 10615 10618 10621 10624 10625 10627 10629 10630 10631 10631 10632 10632 10632 10631 10630 10628 10627 10626 10624 10621 10618 10615 10611 10608 10604 10600
10474 10484 10493 10503 10512 10522 10532 10539 10547 10555 10562 10569 10574 10579 10583 10588 10593 10598 10601 10605 10609 10612 10615 10617 10620 10622 10623 10624 10625 10626 10627 10627 10627 10627 10626 10625 10623 10620 10619 10617 10614 10610 10607 10603 10599 10595 10590
10470 10479 10489 10499 10509 10517 10526 10536 10544 10551 10558 10565 10569 10573 10579 10584 10590 10594 10596 10601 10605 10607 10611 10613 10615 10617 10618 10619 10620 10621 10621 10622 10622 10621 10620 10619 10617 10615 10612 10608 10605 10602 10598 10594 10590 10585 10581
10465 10475 10484 10494 10503 10513 10521 10530 10539 10546 10553 10559 10564 10570 10575 10580 10584 10587 10593 10597 10601 10603 10605 10609 10611 10611 10613 10614 10615 10615 10616 10616 10616 10615 10613 10612 10610 10608 10604 10600 10595 10594 10588 10585 10580 10573 10568
10459 10470 10480 10488 10497 10507 10515 10524 10532 10541 10548 10553 10560 10566 10570 10574 10579 10585 10588 10592 10594 10596 10602 10602 10604 10606 10607 10607 10608 10608 10609 10609 10608 10607 10606 10604 10602 10599 10596 10593 10586 10582 10579 10570 10569 10561 10557
10454 10464 10474 10483 10491 10499 10508 10517 10526 10533 10542 10548 10554 10560 10563 10569 10574 10577 10582 10585 10589 10592 10593 10596 10598 10599 10600 10600 10600 10601 10601 10600 10600 10598 10596 10594 10591 10588 10586 10583 10577 10572 10569 10562 10557 10550 10545
10448 10457 10467 10476 10484 10492 10501 10510 10518 10526 10534 10541 10548 10553 10559 10564 10567 10572 10578 10579 10583 10584 10588 10589 10590 10591 10592 10592 10592 10592 10592 10590 10590 10587 10585 10583 10580 10575 10573 10570 10566 10562 10555 10546 10542 10536 10530
10440 10451 10459 10469 10477 10485 10494 10502 10511 10518 10526 10533 10539 10545 10552 10558 10560 10567 10570 10573 10575 10579 10580 10582 10583 10582 10583 10584 10583 10582 10582 10580 10578 10577 10573 10571 10567 10564 10559 10554 10551 10549 10543 10536 10527 10524 10519
10434 10443 10452 10461 10472 10479 10487 10495 10503 10511 10517 10524 10531 10537 10542 10548 10553 10559 10562 10565 10567 10571 10573 10570 10575 10572 10574 10573 10573 10573 10572 10569 10566 10563 10560 10558 10551 10550 10546 10540 10533 10532 10530 10521 10514 10507 10502